TimeCST,TemperatureF,Dew PointF,Humidity,Sea Level PressureIn,VisibilityMPH,Wind Direction,Wind SpeedMPH,Gust SpeedMPH,PrecipitationIn,Events,Conditions,WindDirDegrees,DateUTC
12:15 AM,21.2,19.4,93,30.10,10.0,Calm,Calm,-,N/A,,Clear,0,2012-12-14 06:15:00
12:35 AM,23.0,21.2,93,30.10,10.0,Calm,Calm,-,N/A,,Clear,0,2012-12-14 06:35:00
12:55 AM,21.2,19.4,93,30.11,10.0,Calm,Calm,-,N/A,,Clear,0,2012-12-14 06:55:00
1:15 AM,21.2,19.4,93,30.11,10.0,Calm,Calm,-,N/A,,Clear,0,2012-12-14 07:15:00
1:35 AM,21.2,19.4,93,30.12,10.0,Calm,Calm,-,N/A,,Clear,0,2012-12-14 07:35:00
1:55 AM,21.2,19.4,93,30.13,10.0,Calm,Calm,-,N/A,,Clear,0,2012-12-14 07:55:00
2:15 AM,21.2,19.4,93,30.13,10.0,Calm,Calm,-,N/A,,Clear,0,2012-12-14 08:15:00
2:55 AM,23.0,21.2,93,30.13,10.0,NNE,5.8,-,N/A,,Clear,20,2012-12-14 08:55:00
3:15 AM,23.0,21.2,93,30.13,10.0,NNE,4.6,-,N/A,,Clear,20,2012-12-14 09:15:00
3:55 AM,21.2,21.2,100,30.14,10.0,NNE,4.6,-,N/A,,Clear,30,2012-12-14 09:55:00
4:15 AM,21.2,19.4,93,30.14,10.0,NNE,4.6,-,N/A,,Clear,30,2012-12-14 10:15:00
4:35 AM,21.2,19.4,93,30.14,10.0,NNE,5.8,-,N/A,,Clear,20,2012-12-14 10:35:00
5:52 AM,17.6,17.6,100,30.14,4.0,NNE,5.8,-,N/A,,Clear,30,2012-12-14 11:52:00
6:50 AM,17.6,17.6,100,30.14,4.0,NE,6.9,-,N/A,,Clear,40,2012-12-14 12:50:00
7:50 AM,17.6,17.6,100,30.15,6.0,ENE,6.9,-,N/A,,Clear,60,2012-12-14 13:50:00
8:55 AM,21.2,21.2,100,30.16,5.0,East,6.9,-,N/A,,Clear,80,2012-12-14 14:55:00
9:45 AM,26.6,26.6,100,30.18,5.0,ESE,5.8,-,N/A,,Overcast,110,2012-12-14 15:45:00
10:45 AM,28.4,28.4,100,30.18,4.0,ESE,9.2,-,N/A,,Overcast,120,2012-12-14 16:45:00
12:45 PM,32.0,28.4,87,30.13,10.0,East,8.1,-,N/A,,Clear,100,2012-12-14 18:45:00
1:50 PM,33.8,28.4,81,30.10,10.0,ESE,10.4,-,N/A,,Clear,110,2012-12-14 19:50:00
2:45 PM,35.6,28.4,75,30.07,10.0,East,9.2,-,N/A,,Clear,100,2012-12-14 20:45:00
3:45 PM,33.8,28.4,81,30.07,10.0,East,8.1,-,N/A,,Clear,100,2012-12-14 21:45:00
5:50 PM,30.2,30.2,100,30.07,10.0,East,8.1,-,N/A,,Mostly Cloudy,90,2012-12-14 23:50:00
6:50 PM,32.0,32.0,100,30.09,7.0,East,13.8,18.4,N/A,,Overcast,100,2012-12-15 00:50:00
7:45 PM,32.0,32.0,100,30.06,7.0,ESE,13.8,18.4,N/A,,Overcast,110,2012-12-15 01:45:00
8:45 PM,33.8,32.0,93,30.05,10.0,East,11.5,-,N/A,,Overcast,100,2012-12-15 02:45:00
9:15 PM,32.0,32.0,100,30.04,7.0,East,12.7,19.6,N/A,,Overcast,100,2012-12-15 03:15:00
9:35 PM,32.0,32.0,100,30.03,7.0,East,11.5,17.3,N/A,,Overcast,100,2012-12-15 03:35:00
9:45 PM,32.0,32.0,100,30.04,7.0,East,13.8,19.6,N/A,,Overcast,100,2012-12-15 03:45:00
9:55 PM,32.0,32.0,100,30.04,7.0,East,13.8,19.6,N/A,,Overcast,100,2012-12-15 03:55:00
10:15 PM,32.0,32.0,100,30.03,7.0,ESE,12.7,18.4,N/A,,Overcast,110,2012-12-15 04:15:00
10:35 PM,32.0,32.0,100,30.03,7.0,ESE,10.4,-,N/A,,Overcast,110,2012-12-15 04:35:00
10:55 PM,32.0,32.0,100,30.01,7.0,East,9.2,20.7,N/A,,Overcast,100,2012-12-15 04:55:00
11:15 PM,32.0,32.0,100,30.01,7.0,East,15.0,19.6,N/A,,Overcast,100,2012-12-15 05:15:00
11:35 PM,32.0,32.0,100,30.00,7.0,East,11.5,18.4,N/A,,Overcast,100,2012-12-15 05:35:00
11:55 PM,32.0,32.0,100,29.99,7.0,East,13.8,18.4,N/A,,Overcast,100,2012-12-15 05:55:00